Regional Weather Roundup
Issued by NWS

Home | Current Version | Previous Version | Graphics & Text | Print | Product List | Glossary On
Versions: 1 2 3 4 5 6 7 8 9 10 11 12 13 14 15 16 17 18 19 20 21 22 23 24 25 26 27 28 29 30 31 32 33 34 35 36 37 38 39 40 41 42 43 44 45 46 47 48 49 50
625
ASUS43 KLSX 270007
RWRMO

WEATHER SUMMARY FOR MISSOURI
NATIONAL WEATHER SERVICE SPRINGFIELD MO
700 PM CDT FRI MAY 26 2017

NOTE: "FAIR" INDICATES FEW OR NO CLOUDS BELOW 12,000 FEET WITH NO
       SIGNIFICANT WEATHER AND/OR OBSTRUCTIONS TO VISIBILITY.
       CURRENT SKY AND/OR WEATHER CONDITIONS ARE NOT AVAILABLE FOR
       CHILLICOTHE AND FARMINGTON.

MOZ001>031-035>038-043-044-053-054-270100-
...NORTHERN AND WESTERN MISSOURI...

CITY           SKY/WX    TMP DP  RH WIND       PRES   REMARKS
KANSAS CTY INT MOSUNNY   82  63  52 E7        29.78R
6HR MIN TEMP:  78; 6HR MAX TEMP:  84;

KANSAS C DTWN  SUNNY     84  62  47 NE5       29.76R
6HR MIN TEMP:  81; 6HR MAX TEMP:  87;

LEE`S SUMMIT   MOSUNNY   81  65  58 NE7       29.78R
6HR MIN TEMP:  78; 6HR MAX TEMP:  84;

ST JOSEPH      SUNNY     84  62  47 E6        29.77R
6HR MIN TEMP:  80; 6HR MAX TEMP:  86;

CHILLICOTHE      N/A     83  64  52 NE5       29.78R
6HR MIN TEMP:  80; 6HR MAX TEMP:  84;

KIRKSVILLE     SUNNY     78  64  61 N8        29.79R
6HR MIN TEMP:  78; 6HR MAX TEMP:  83;


$$
MOZ066>068-077>081-088>096-101>105-270100-
...SOUTHWEST MISSOURI...

CITY           SKY/WX    TMP DP  RH WIND       PRES   REMARKS
SPRINGFIELD    CLOUDY    81  69  67 W5        29.79R
6HR MIN TEMP:  76; 6HR MAX TEMP:  83;

JOPLIN         MOSUNNY   84  69  60 CALM      29.78R
6HR MIN TEMP:  80; 6HR MAX TEMP:  86;

BRANSON        PTSUNNY   81  70  69 S3        29.81R

$$
MOZ032>034-039>042-045>050-055>058-069>072-270100-
...CENTRAL MISSOURI...

CITY           SKY/WX    TMP DP  RH WIND       PRES   REMARKS
COLUMBIA       CLOUDY    79  68  69 NW5       29.78S
6HR MIN TEMP:  77; 6HR MAX TEMP:  81;

JEFFERSON CITY PTSUNNY   82  66  58 W5        29.77R
6HR MIN TEMP:  80; 6HR MAX TEMP:  83;

ROLLA          CLOUDY    75  69  81 SW6       29.79R
6HR MIN TEMP:  75; 6HR MAX TEMP:  79;

SEDALIA        SUNNY     82  68  62 N3        29.79S
6HR MIN TEMP:  78; 6HR MAX TEMP:  83;

WHITEMAN AFB   SUNNY     82  67  60 CALM      29.76S
WARRENSBURG    SUNNY     81  63  54 CALM      29.77S
OSAGE BEACH    CLOUDY    78  68  71 CALM      29.80R

$$
MOZ051-052-059>065-270100-
...EAST CENTRAL MISSOURI...

CITY           SKY/WX    TMP DP  RH WIND       PRES   REMARKS
ST LOUIS INTL  PTSUNNY   81  67  62 SW12      29.76S
6HR MIN TEMP:  80; 6HR MAX TEMP:  87;

SPIRIT OF STL  CLOUDY    78  69  73 SW8       29.75S
6HR MIN TEMP:  77; 6HR MAX TEMP:  84; 6HR PCP: TRACE;

ST CHARLES     CLOUDY    79  68  69 SW12      29.74S
6HR MIN TEMP:  79; 6HR MAX TEMP:  85;


$$
MOZ072>076-082>087-097>100-106>115-270100-
...SOUTH CENTRAL AND SOUTHEAST MISSOURI...

CITY           SKY/WX    TMP DP  RH WIND       PRES   REMARKS
CAPE GIRARDEAU CLOUDY    71  68  90 S5        29.83R FOG
6HR MIN TEMP:  71; 6HR MAX TEMP:  85; 6HR PCP: TRACE;

FARMINGTON     CLOUDY    73  67  81 S8        29.82S
6HR MIN TEMP:  72; 6HR MAX TEMP:  75;

POPLAR BLUFF   CLOUDY    74  69  85 S6        29.82R
6HR MIN TEMP:  74; 6HR MAX TEMP:  76; 6HR PCP: TRACE;

WEST PLAINS    CLOUDY    75  68  78 S3        29.83R
6HR MIN TEMP:  74; 6HR MAX TEMP:  77;


$$




USA.gov is the U.S. government's official web portal to all federal, state and local government web resources and services.